Flag for Norway Weather past 2 weeks in Kleppe, Norway

Now
54 °F

Overcast.


Feels Like: 51 °F
Forecast: 50 / 55 °F
Wind: 9 mph from Southwest

Location: Stavanger / Sola

Current Time: Oct 26, 2014 at 2:29:59 AM

Latest Report: Oct 26, 2014 at 1:00 AM


Visibility: 6 mi

Pressure: 29.74 "Hg

Humidity: 85%

Dew point: 49 °F

Location of KleppeLocation

Historic Weather in Kleppe — Graph

°F

Kleppe temperature yesterday

Maximum temperature yesterday: 54 °F (at 3:00 PM)
Minimum temperature yesterday: 47 °F (at 6:00 AM)
Average temperature yesterday: 51 °F

Past Weeks' High & Low Weather Summary

 TemperatureHumidityPressure
High59 °F (Oct 19, 2:00 PM)98% (Oct 12, 9:00 AM)29.98 "Hg (Oct 12, 9:00 AM)
Low34 °F (Oct 17, 2:00 AM)46% (Oct 16, 4:00 PM)29.15 "Hg (Oct 21, 4:00 PM)
Average50 °F85%29.75 "Hg
* Reported Oct 11 1:00 AM — Oct 26 1:00 AM, Kleppe, Weather by CustomWeather, © 2014

Note: Actual official high and low records may vary slightly from our data, if they occured in-between our weather recording intervals... More about our weather records

Advertising

Kleppe weather history for previous 24 hours

 ConditionsComfort  
Time TempWeatherWind HumidityBarometerVisibility
1:00 AM
Oct 26
54 °FOvercast.9 mph85%29.74 "Hg6 mi
12:00 AM53 °FPassing clouds.9 mph86%29.74 "Hg7 mi
11:00 PM
Oct 25
54 °FOvercast.9 mph86%29.74 "Hg6 mi
10:00 PM54 °FOvercast.9 mph87%29.74 "Hg7 mi
9:00 PM53 °FOvercast.9 mph88%29.73 "Hg7 mi
8:00 PM53 °FRain showers. Low clouds.9 mph91%29.73 "Hg4 mi
7:00 PM53 °FLight rain. Overcast.8 mph91%29.74 "Hg5 mi
6:00 PM53 °FLight rain. Overcast.9 mph90%29.73 "Hg6 mi
5:00 PM53 °FRain showers. Partly sunny.9 mph87%29.73 "Hg7 mi
4:00 PM53 °FOvercast.9 mph83%29.75 "Hg8 mi
3:00 PM54 °FRain showers. Overcast.10 mph83%29.76 "Hg8 mi
2:00 PM53 °FScattered clouds.10 mph81%29.76 "Hg15 mi
1:00 PM53 °FPartly sunny.9 mph82%29.78 "Hg11 mi
12:00 PM53 °FPartly sunny.8 mph82%29.78 "Hg16 mi
11:00 AM51 °FLots of rain. Overcast.5 mph90%29.78 "Hg4 mi
10:00 AM50 °FOvercast.3 mph88%29.78 "Hg12 mi
9:00 AM49 °FOvercast.3 mph90%29.77 "Hg13 mi
8:00 AM49 °FPassing clouds.5 mph91%29.75 "Hg13 mi
7:00 AM48 °FPassing clouds.3 mph92%29.74 "Hg15 mi
6:00 AM47 °FClear.3 mph91%29.75 "Hg14 mi
5:00 AM49 °FPassing clouds.2 mph93%29.74 "Hg12 mi
4:00 AM50 °FRain showers. Light fog.5 mph82%29.74 "Hg5 mi
3:00 AM51 °FOvercast.8 mph84%29.75 "Hg13 mi
2:00 AM51 °FPassing clouds.6 mph87%29.74 "Hg17 mi
Weather by CustomWeather, © 2014

See weather overviewHow to use our weather pages